Regional Weather Roundup
Issued by NWS

Home | Current Version | Previous Version | Text Only | Print | Product List | Glossary On
Versions: 1 2 3 4 5 6 7 8 9 10 11 12 13 14 15 16 17 18 19 20 21 22 23 24 25 26 27 28 29 30 31 32 33 34 35 36 37 38 39 40 41 42 43 44 45 46 47 48 49 50
000
ASUS43 KIND 281459
RWRIN

WEATHER ROUNDUP FOR INDIANA
NATIONAL WEATHER SERVICE INDIANAPOLIS IN
1100 AM EDT THU JUL 28 2016

NOTE: "FAIR" INDICATES FEW OR NO CLOUDS BELOW 12,000 FEET WITH NO
SIGNIFICANT WEATHER AND/OR OBSTRUCTIONS TO VISIBILITY.

* - STATION DOES NOT REPORT WEATHER SUCH AS PRECIPITATION OR FOG.

+ - STATION NOT QUALITY CONTROLLED BY THE NATIONAL WEATHER SERVICE.
    USE DATA WITH CAUTION...ESPECIALLY DEWPOINT AND RELATIVE
    HUMIDITY OBSERVATIONS.

INZ001>003-010>013-019-020-281600-
NORTHWEST INDIANA

CITY           SKY/WX    TMP DP  RH WIND       PRES   REMARKS
GARY /AIRPORT/ PTSUNNY   81  72  74 CALM      29.91F
KNOX *+        CLOUDY    79  61  53 CALM      29.91F
MONTICELLO +   CLOUDY    77  67  72 CALM      29.91F
RENSSELAER +   CLOUDY    77  70  78 CALM      29.91F

$$

LMZ046-743>745-281600-
SOUTHERN LAKE MICHIGAN

STATION/POSITION TIME  TEMP    WIND        PRES    WAVE
                       AIR SEA DIR/SP/G            HT
                 (UTC) (F)     (DEG/KT/KT) (MB)    (FT)
BURNS HARBOR     1400   77      70/  5/  6 1013.5F
MICHIGAN CITY    1400   76      10/  5/  5   N/A
5NW MICH CITY    1400   78 78   CALM  /  2   N/A     0

$$

INZ004-005-014>016-021>024-281600-
NORTH CENTRAL INDIANA

CITY           SKY/WX    TMP DP  RH WIND       PRES   REMARKS
ELKHART        PTSUNNY   81  68  65 CALM      29.93F
GOSHEN         CLOUDY    79  66  64 VRB3      29.92F
SOUTH BEND     MOSUNNY   81  67  62 VRB3      29.92F

$$

INZ006>009-017-018-025>027-281600-
NORTHEAST INDIANA

CITY           SKY/WX    TMP DP  RH WIND       PRES   REMARKS
ANGOLA *+        N/A     79  70  73 N5        29.92F
FORT WAYNE     CLOUDY    81  66  60 NE5       29.91F

$$

INZ028-029-035-036-043>045-051>053-281600-
WEST CENTRAL INDIANA

CITY           SKY/WX    TMP DP  RH WIND       PRES   REMARKS
CRAWFORDSVL +  PTSUNNY   77  67  70 CALM      29.93S
LAFAYETTE      CLOUDY    76  72  87 SW5       29.90F
TERRE HAUTE    CLOUDY    78  73  84 CALM      29.91F

$$

INZ030>032-037>040-046>048-054>057-064-065-281600-
CENTRAL INDIANA

CITY           SKY/WX    TMP DP  RH WIND       PRES   REMARKS
ANDERSON       SUNNY     77  68  73 CALM      29.93F
COLUMBUS       PTSUNNY   73  73 100 CALM      29.92S
INDIANAPOLIS   CLOUDY    79  70  74 W5        29.93S
-EAGLE CREEK   CLOUDY    81  70  69 W5        29.92S
KOKOMO *+      CLOUDY    79  66  65 CALM      29.92S
SHELBYVILLE    CLOUDY    79  71  76 CALM      29.92S

$$

INZ033-034-041-042-049-050-058-059-281600-
EAST CENTRAL INDIANA

CITY           SKY/WX    TMP DP  RH WIND       PRES   REMARKS
MUNCIE         CLOUDY    80  69  69 W7        29.92F

$$

INZ060-061-067>069-081>083-085>088-281600-
SOUTHWEST INDIANA

CITY           SKY/WX    TMP DP  RH WIND       PRES   REMARKS
EVANSVILLE     CLOUDY    76  72  87 W6        29.93S
HUNTINGBURG *+ CLOUDY    75  70  83 SW5       29.93S

$$

INZ062-063-066-070>080-084-089>092-281600-
SOUTH CENTRAL AND SOUTHEAST INDIANA

CITY           SKY/WX    TMP DP  RH WIND       PRES   REMARKS
BLOOMINGTON    CLOUDY    78  72  81 W5        29.93S
MADISON *+     CLOUDY    72  70  94 CALM      29.94S
SEYMOUR +      CLOUDY    75  75 100 CALM      29.92S

$$




USA.gov is the U.S. government's official web portal to all federal, state and local government web resources and services.